| time (UTC) | temp C | wind direction | speed KPH | gust KPH | rain 1hr cm | rain 24hr cm | rain mn cm | humidity % | barometer mb |
| 20260510030027 | 7 | 248 | 0.0 | 0.0 | 0.00 | 0.00 | 0.00 | 46 | 1010.8 |
| 20260510024526 | 8 | 238 | 0.0 | 1.6 | 0.00 | 0.00 | 0.00 | 44 | 1010.6 |
| 20260510023026 | 10 | 106 | 0.0 | 0.0 | 0.00 | 0.00 | 0.00 | 41 | 1010.3 |
| 20260510021530 | 10 | 41 | 0.0 | 0.0 | 0.00 | 0.00 | 0.00 | 39 | 1010.2 |
| 20260510020030 | 11 | 41 | 0.0 | 1.6 | 0.00 | 0.00 | 0.00 | 39 | 1009.9 |
| 20260510014524 | 11 | 195 | 0.0 | 0.0 | 0.00 | 0.00 | 0.00 | 37 | 1009.6 |
| 20260510013024 | 12 | 195 | 0.0 | 0.0 | 0.00 | 0.00 | 0.00 | 36 | 1009.5 |
| 20260510011524 | 12 | 195 | 0.0 | 0.0 | 0.00 | 0.00 | 0.00 | 37 | 1009.4 |
| 20260510010022 | 12 | 257 | 0.0 | 3.2 | 0.00 | 0.00 | 0.00 | 34 | 1009.4 |
| 20260510004522 | 12 | 214 | 0.0 | 1.6 | 0.00 | 0.00 | 0.00 | 32 | 1009.4 |
| 20260510003022 | 13 | 158 | 0.0 | 0.0 | 0.00 | 0.00 | 0.00 | 33 | 1009.3 |
| 20260510001521 | 13 | 72 | 0.0 | 6.4 | 0.00 | 0.00 | 0.00 | 32 | 1009.2 |
| 20260510000022 | 12 | 143 | 0.0 | 0.0 | 0.00 | 0.00 | 0.00 | 34 | 1009.5 |
| 20260509234520 | 12 | 146 | 0.0 | 8.0 | 0.00 | 0.00 | 0.00 | 34 | 1009.4 |
| 20260509233021 | 13 | 250 | 1.6 | 6.4 | 0.00 | 0.00 | 0.00 | 35 | 1009.8 |
| 20260509231519 | 12 | 72 | 1.6 | 8.0 | 0.00 | 0.00 | 0.00 | 35 | 1009.3 |
| 20260509230019 | 12 | 53 | 0.0 | 6.4 | 0.00 | 0.00 | 0.00 | 36 | 1009.5 |
| 20260509224518 | 12 | 276 | 1.6 | 9.7 | 0.00 | 0.00 | 0.00 | 36 | 1009.7 |
| 20260509223019 | 13 | 238 | 6.4 | 17.7 | 0.00 | 0.00 | 0.00 | 31 | 1009.9 |
| 20260509221517 | 14 | 279 | 0.0 | 9.7 | 0.00 | 0.00 | 0.00 | 26 | 1009.0 |
| 20260509220016 | 15 | 135 | 0.0 | 4.8 | 0.00 | 0.00 | 0.00 | 27 | 1009.1 |
| 20260509214516 | 15 | 289 | 0.0 | 8.0 | 0.00 | 0.00 | 0.00 | 29 | 1009.3 |
| 20260509213018 | 15 | 158 | 3.2 | 14.5 | 0.00 | 0.00 | 0.00 | 26 | 1009.4 |
| 20260509211518 | 15 | 171 | 3.2 | 11.3 | 0.00 | 0.00 | 0.00 | 25 | 1009.1 |
| 20260509210014 | 16 | 160 | 3.2 | 11.3 | 0.00 | 0.00 | 0.00 | 24 | 1009.4 |
| 20260509204514 | 16 | 53 | 3.2 | 11.3 | 0.00 | 0.00 | 0.00 | 25 | 1009.4 |
| 20260509203023 | 15 | 243 | 3.2 | 11.3 | 0.00 | 0.00 | 0.00 | 27 | 1009.4 |
| 20260509201512 | 15 | 195 | 1.6 | 14.5 | 0.00 | 0.00 | 0.00 | 30 | 1009.8 |
| 20260509200009 | 16 | 226 | 1.6 | 9.7 | 0.00 | 0.00 | 0.00 | 27 | 1009.8 |
| 20260509194508 | 16 | 159 | 0.0 | 12.9 | 0.00 | 0.00 | 0.00 | 25 | 1009.7 |
| 20260509193008 | 15 | 174 | 0.0 | 9.7 | 0.00 | 0.00 | 0.00 | 26 | 1010.0 |
| 20260509191510 | 16 | 243 | 0.0 | 9.7 | 0.00 | 0.00 | 0.00 | 25 | 1010.0 |
| 20260509190104 | 15 | 79 | 3.2 | 16.1 | 0.00 | 0.00 | 0.00 | 26 | 1010.3 |
| 20260509184504 | 16 | 213 | 3.2 | 9.7 | 0.00 | 0.00 | 0.00 | 27 | 1010.0 |
| 20260509183003 | 15 | 8 | 0.0 | 16.1 | 0.00 | 0.00 | 0.00 | 27 | 1010.2 |
| 20260509181502 | 15 | 211 | 1.6 | 8.0 | 0.00 | 0.00 | 0.00 | 28 | 1010.2 |
| 20260509180003 | 15 | 68 | 1.6 | 12.9 | 0.00 | 0.00 | 0.00 | 28 | 1010.3 |
| 20260509174601 | 16 | 97 | 3.2 | 12.9 | 0.00 | 0.00 | 0.00 | 26 | 1010.5 |
| 20260509173104 | 16 | 229 | 3.2 | 22.5 | 0.00 | 0.00 | 0.00 | 26 | 1010.4 |
| 20260509171558 | 16 | 18 | 0.0 | 14.5 | 0.00 | 0.00 | 0.00 | 24 | 1010.2 |
| 20260509170057 | 16 | 272 | 1.6 | 12.9 | 0.00 | 0.00 | 0.00 | 25 | 1010.7 |
| 20260509164556 | 16 | 160 | 3.2 | 8.0 | 0.00 | 0.00 | 0.00 | 24 | 1010.7 |
| 20260509163100 | 16 | 198 | 6.4 | 11.3 | 0.00 | 0.00 | 0.00 | 24 | 1010.9 |
| 20260509161550 | 15 | 221 | 4.8 | 12.9 | 0.00 | 0.00 | 0.00 | 26 | 1011.0 |
| 20260509160046 | 15 | 71 | 1.6 | 14.5 | 0.00 | 0.00 | 0.00 | 27 | 1011.2 |
| 20260509154544 | 14 | 181 | 1.6 | 11.3 | 0.00 | 0.00 | 0.00 | 28 | 1011.3 |
| 20260509153049 | 13 | 264 | 3.2 | 16.1 | 0.00 | 0.00 | 0.00 | 27 | 1011.6 |
| 20260509151541 | 12 | 128 | 8.0 | 16.1 | 0.00 | 0.00 | 0.00 | 27 | 1011.8 |
| 20260509150041 | 12 | 308 | 3.2 | 9.7 | 0.00 | 0.00 | 0.00 | 29 | 1011.8 |
| 20260509144532 | 11 | 95 | 0.0 | 17.7 | 0.00 | 0.00 | 0.00 | 30 | 1011.9 |
| 20260509143029 | 11 | 335 | 1.6 | 11.3 | 0.00 | 0.00 | 0.00 | 31 | 1012.1 |
| 20260509141524 | 10 | 46 | 3.2 | 12.9 | 0.00 | 0.00 | 0.00 | 32 | 1012.1 |
| 20260509140020 | 8 | 220 | 1.6 | 11.3 | 0.00 | 0.00 | 0.00 | 35 | 1012.2 |
| 20260509134516 | 5 | 314 | 1.6 | 12.9 | 0.00 | 0.00 | 0.00 | 45 | 1012.2 |
| 20260509133014 | 2 | 139 | 0.0 | 0.0 | 0.00 | 0.00 | 0.00 | 57 | 1012.2 |
| 20260509131513 | 2 | 219 | 0.0 | 0.0 | 0.00 | 0.00 | 0.00 | 56 | 1012.1 |
| 20260509130012 | 2 | 219 | 0.0 | 0.0 | 0.00 | 0.00 | 0.00 | 57 | 1012.0 |
| 20260509124511 | 1 | 124 | 0.0 | 0.0 | 0.00 | 0.00 | 0.00 | 61 | 1011.8 |
| 20260509123011 | 1 | 90 | 0.0 | 1.6 | 0.00 | 0.00 | 0.00 | 64 | 1011.7 |
| 20260509121513 | 1 | 251 | 0.0 | 0.0 | 0.00 | 0.00 | 0.00 | 65 | 1011.6 |
| 20260509120007 | 1 | 251 | 0.0 | 1.6 | 0.00 | 0.00 | 0.00 | 65 | 1011.5 |
| 20260509114510 | 1 | 274 | 0.0 | 0.0 | 0.00 | 0.00 | 0.00 | 65 | 1011.5 |
| 20260509113006 | 1 | 269 | 0.0 | 1.6 | 0.00 | 0.00 | 0.00 | 64 | 1011.2 |
| 20260509111505 | 1 | 254 | 0.0 | 0.0 | 0.00 | 0.00 | 0.00 | 63 | 1011.4 |
| 20260509110003 | 1 | 275 | 0.0 | 3.2 | 0.00 | 0.00 | 0.00 | 66 | 1011.4 |
| 20260509104503 | 1 | 266 | 0.0 | 4.8 | 0.00 | 0.00 | 0.00 | 68 | 1011.7 |
| 20260509103104 | 1 | 272 | 0.0 | 1.6 | 0.00 | 0.00 | 0.00 | 67 | 1011.8 |
| 20260509101603 | 1 | 304 | 0.0 | 6.4 | 0.00 | 0.00 | 0.00 | 67 | 1011.8 |
| 20260509100101 | 1 | 274 | 0.0 | 1.6 | 0.00 | 0.00 | 0.00 | 70 | 1011.9 |
| 20260509094557 | 1 | 71 | 0.0 | 0.0 | 0.00 | 0.00 | 0.00 | 69 | 1011.9 |
| 20260509093057 | 1 | 281 | 0.0 | 1.6 | 0.00 | 0.00 | 0.00 | 68 | 1011.9 |
| 20260509091556 | 1 | 259 | 0.0 | 0.0 | 0.00 | 0.00 | 0.00 | 68 | 1011.9 |
| 20260509090056 | 1 | 259 | 0.0 | 3.2 | 0.00 | 0.00 | 0.00 | 67 | 1011.7 |
| 20260509084552 | 1 | 61 | 1.6 | 3.2 | 0.00 | 0.00 | 0.00 | 67 | 1011.9 |
| 20260509083057 | 1 | 333 | 0.0 | 1.6 | 0.00 | 0.00 | 0.00 | 68 | 1011.9 |
| 20260509081548 | 1 | 86 | 0.0 | 1.6 | 0.00 | 0.00 | 0.00 | 66 | 1011.9 |
| 20260509080046 | 2 | 144 | 0.0 | 1.6 | 0.00 | 0.00 | 0.00 | 66 | 1011.8 |
| 20260509074546 | 2 | 268 | 0.0 | 0.0 | 0.00 | 0.00 | 0.00 | 64 | 1012.0 |
| 20260509073042 | 2 | 84 | 0.0 | 1.6 | 0.00 | 0.00 | 0.00 | 64 | 1012.4 |
| 20260509071541 | 2 | 76 | 0.0 | 1.6 | 0.00 | 0.00 | 0.00 | 63 | 1012.4 |
| 20260509070041 | 2 | 66 | 0.0 | 3.2 | 0.00 | 0.00 | 0.00 | 64 | 1012.5 |
| 20260509064538 | 2 | 89 | 0.0 | 1.6 | 0.00 | 0.00 | 0.00 | 62 | 1012.6 |
| 20260509063033 | 3 | 249 | 0.0 | 0.0 | 0.00 | 0.00 | 0.00 | 61 | 1012.7 |
| 20260509061532 | 3 | 267 | 0.0 | 1.6 | 0.00 | 0.00 | 0.00 | 60 | 1012.8 |
| 20260509060035 | 3 | 261 | 0.0 | 0.0 | 0.00 | 0.00 | 0.00 | 60 | 1012.7 |
| 20260509054528 | 3 | 250 | 0.0 | 0.0 | 0.00 | 0.00 | 0.00 | 58 | 1012.7 |
| 20260509053028 | 4 | 243 | 0.0 | 3.2 | 0.00 | 0.00 | 0.00 | 57 | 1012.7 |
| 20260509051527 | 4 | 220 | 0.0 | 0.0 | 0.00 | 0.00 | 0.00 | 56 | 1012.6 |
| 20260509050042 | 5 | 262 | 0.0 | 0.0 | 0.00 | 0.00 | 0.00 | 56 | 1012.7 |
| 20260509044526 | 5 | 257 | 0.0 | 1.6 | 0.00 | 0.00 | 0.00 | 53 | 1012.8 |
| 20260509043026 | 5 | 278 | 0.0 | 1.6 | 0.00 | 0.00 | 0.00 | 54 | 1012.8 |
| 20260509041526 | 6 | 269 | 0.0 | 1.6 | 0.00 | 0.00 | 0.00 | 51 | 1012.7 |
| 20260509040025 | 6 | 262 | 0.0 | 3.2 | 0.00 | 0.00 | 0.00 | 51 | 1012.6 |
| 20260509034524 | 7 | 46 | 0.0 | 1.6 | 0.00 | 0.00 | 0.00 | 48 | 1012.4 |
| 20260509033024 | 7 | 260 | 0.0 | 1.6 | 0.00 | 0.00 | 0.00 | 46 | 1012.1 |
| 20260509031531 | 8 | 233 | 0.0 | 4.8 | 0.00 | 0.00 | 0.00 | 41 | 1011.9 |